FALCON 9 R/B, 55684

Orbit data source: Space-Track

FALCON 9 R/B, 55684 is space debris in HEO originally from a launch on Sat, 18 Feb 2023 UTC launched from the Air Force Eastern Test Range (AFETR). Debris objects in space refer to the collection of defunct objects orbiting the Earth. Examples of debris include non-operational satellites, rocket bodies, and fragments generated from explosions, collisions, or faulty payload assembly.

Loading next visibility...
Identifier
55684, 2023-022B
Orbit
HEO
Country
Flag of USUS
Related business
Manufacturer
SpaceX
Mission
Spacecraft
Bus & Motor
F9ST2, Unknown motor
Mass
~3,000 kg wet, ~3,000 kg dry
Launch date (UTC)
2023-02-18 (3 years ago)
Launch vehicle
Unknown
Launch site
Air Force Eastern Test Range (AFETR)
Object type
Payload
Rocket body
Debris
Shape & HBR
Cyl, 7.8 m
Radar Cross Section
39.980 m², Large (>1 m²)

Expand to show TLE details & history
Last TLE update: 1 day ago

TLE from 1 day ago
0 FALCON 9 R/B
1 55684U 23022B   25340.44421829  .00034678  00000-0  36549-2 0  9992
2 55684  26.8836  59.0530 7267465  34.1576 356.0186  2.31991750 21647
Epoch: 2025-12-06T10:39Z
TLE epoch observation values (Epoch: 2025-12-06T10:39:40.460Z)
Latitude
-0.00046°
Longitude
-176.3056°
Altitude
691.88 km
Speed
9.809 km/s
True Right ascension
03h 56m 20s
True Declination
0° 00' 02"
Sunlit
Object was in full shadow at epoch
Visualization orbit readout
Latitude
Unknown
Longitude
Unknown
Altitude
Unknown
Speed
Unknown
Apparent Right ascension
Unknown
Apparent Declination
Unknown
Sunlit
N/A
Visualization observer readout
Local Sidereal Time
14:26:14
Azimuth
Unknown
Elevation
Unknown
Doppler factor
Unknown
Orbital elements
Apogee altitude
35,249.915 km
Perigee altitude
209.403 km
Semi-major axis
24,107.796 km
Eccentricity
0.72675
Inclination
26.8836°
RAAN
59.053°
Arg. of periapsis
34.1576°
True anomaly
325.26063°
Mean anomaly
356.0186°
Eccentric anomaly
345.81395°
Mean motion
0.57984 °/min
Orbital period
620.86 mins
BSTAR
0.0036549
Loading maneuver chart data...
Computing Atmospheric mass density...
Loading historical data...
Loading historical data...
Loading historical data...
Loading historical data...
Loading historical data...
Loading historical data...
Loading historical data...
Other satellites on launch #22 in the year 2023 (2023-02-18 UTC)

Documentation

Showing up to 5 results
|